Year,Month,Day,Hour,Minute,Value (Times are PST for temperature in C)
2015,10,03,00,00,9.80
2015,10,03,00,01,9.80
2015,10,03,00,02,9.80
2015,10,03,00,03,9.80
2015,10,03,00,04,9.80
2015,10,03,00,05,9.80
2015,10,03,00,06,9.80
2015,10,03,00,07,9.80
2015,10,03,00,08,9.80
2015,10,03,00,09,9.80
2015,10,03,00,10,9.70
2015,10,03,00,11,9.70
2015,10,03,00,12,9.70
2015,10,03,00,13,9.70
2015,10,03,00,14,9.70
2015,10,03,00,15,9.70
2015,10,03,00,16,9.70
2015,10,03,00,17,9.70
2015,10,03,00,18,9.70
2015,10,03,00,19,9.80
2015,10,03,00,20,9.80
2015,10,03,00,21,9.80
2015,10,03,00,22,9.80
2015,10,03,00,23,9.80
2015,10,03,00,24,9.80
2015,10,03,00,25,9.80
2015,10,03,00,26,9.80
2015,10,03,00,27,9.80
2015,10,03,00,28,9.80
2015,10,03,00,29,9.80
2015,10,03,00,30,9.80
2015,10,03,00,31,9.70
2015,10,03,00,32,9.80
2015,10,03,00,33,9.80
2015,10,03,00,34,9.80
2015,10,03,00,35,9.80
2015,10,03,00,36,9.80
2015,10,03,00,37,9.80
2015,10,03,00,38,9.80
2015,10,03,00,39,9.80
2015,10,03,00,40,9.80
2015,10,03,00,41,9.80
2015,10,03,00,42,9.80
2015,10,03,00,43,9.80
2015,10,03,00,44,9.80
2015,10,03,00,45,9.80
2015,10,03,00,46,9.80
2015,10,03,00,47,9.80
2015,10,03,00,48,9.80
2015,10,03,00,49,9.80
2015,10,03,00,50,9.80
2015,10,03,00,51,9.80
2015,10,03,00,52,9.80
2015,10,03,00,53,9.70
2015,10,03,00,54,9.70
2015,10,03,00,55,9.70
2015,10,03,00,56,9.70
2015,10,03,00,57,9.70
2015,10,03,00,58,9.70
2015,10,03,00,59,9.70
2015,10,03,01,00,9.70
2015,10,03,01,01,9.70
2015,10,03,01,02,9.70
2015,10,03,01,03,9.70
2015,10,03,01,04,9.70
2015,10,03,01,05,9.70
2015,10,03,01,06,9.70
2015,10,03,01,07,9.70
2015,10,03,01,08,9.70
2015,10,03,01,09,9.70
2015,10,03,01,10,9.70
2015,10,03,01,11,9.70
2015,10,03,01,12,9.70
2015,10,03,01,13,9.70
2015,10,03,01,14,9.70
2015,10,03,01,15,9.70
2015,10,03,01,16,9.70
2015,10,03,01,17,9.70
2015,10,03,01,18,9.70
2015,10,03,01,19,9.70
2015,10,03,01,20,9.70
2015,10,03,01,21,9.70
2015,10,03,01,22,9.70
2015,10,03,01,23,9.60
2015,10,03,01,24,9.60
2015,10,03,01,25,9.70
2015,10,03,01,26,9.70
2015,10,03,01,27,9.70
2015,10,03,01,28,9.70
2015,10,03,01,29,9.70
2015,10,03,01,30,9.70
2015,10,03,01,31,9.70
2015,10,03,01,32,9.70
2015,10,03,01,33,9.80
2015,10,03,01,34,9.80
2015,10,03,01,35,9.80
2015,10,03,01,36,9.80
2015,10,03,01,37,9.80
2015,10,03,01,38,9.80
2015,10,03,01,39,9.70
2015,10,03,01,40,9.70
2015,10,03,01,41,9.70
2015,10,03,01,42,9.70
2015,10,03,01,43,9.70
2015,10,03,01,44,9.70
2015,10,03,01,45,9.70
2015,10,03,01,46,9.60
2015,10,03,01,47,9.60
2015,10,03,01,48,9.60
2015,10,03,01,49,9.70
2015,10,03,01,50,9.60
2015,10,03,01,51,9.60
2015,10,03,01,52,9.60
2015,10,03,01,53,9.60
2015,10,03,01,54,9.60
2015,10,03,01,55,9.60
2015,10,03,01,56,9.60
2015,10,03,01,57,9.60
2015,10,03,01,58,9.60
2015,10,03,01,59,9.60
2015,10,03,02,00,9.60
2015,10,03,02,01,9.60
2015,10,03,02,02,9.50
2015,10,03,02,03,9.50
2015,10,03,02,04,9.50
2015,10,03,02,05,9.50
2015,10,03,02,06,9.40
2015,10,03,02,07,9.40
2015,10,03,02,08,9.40
2015,10,03,02,09,9.40
2015,10,03,02,10,9.30
2015,10,03,02,11,9.30
2015,10,03,02,12,9.30
2015,10,03,02,13,9.20
2015,10,03,02,14,9.20
2015,10,03,02,15,9.20
2015,10,03,02,16,9.20
2015,10,03,02,17,9.10
2015,10,03,02,18,9.20
2015,10,03,02,19,9.20
2015,10,03,02,20,9.20
2015,10,03,02,21,9.20
2015,10,03,02,22,9.20
2015,10,03,02,23,9.20
2015,10,03,02,24,9.20
2015,10,03,02,25,9.20
2015,10,03,02,26,9.20
2015,10,03,02,27,9.20
2015,10,03,02,28,9.20
2015,10,03,02,29,9.20
2015,10,03,02,30,9.20
2015,10,03,02,31,9.20
2015,10,03,02,32,9.20
2015,10,03,02,33,9.20
2015,10,03,02,34,9.20
2015,10,03,02,35,9.20
2015,10,03,02,36,9.20
2015,10,03,02,37,9.20
2015,10,03,02,38,9.20
2015,10,03,02,39,9.20
2015,10,03,02,40,9.20
2015,10,03,02,41,9.20
2015,10,03,02,42,9.20
2015,10,03,02,43,9.30
2015,10,03,02,44,9.30
2015,10,03,02,45,9.30
2015,10,03,02,46,9.40
2015,10,03,02,47,9.40
2015,10,03,02,48,9.40
2015,10,03,02,49,9.40
2015,10,03,02,50,9.50
2015,10,03,02,51,9.50
2015,10,03,02,52,9.50
2015,10,03,02,53,9.60
2015,10,03,02,54,9.60
2015,10,03,02,55,9.60
2015,10,03,02,56,9.60
2015,10,03,02,57,9.70
2015,10,03,02,58,9.70
2015,10,03,02,59,9.70
2015,10,03,03,00,9.70
2015,10,03,03,01,9.70
2015,10,03,03,02,9.70
2015,10,03,03,03,9.60
2015,10,03,03,04,9.60
2015,10,03,03,05,9.60
2015,10,03,03,06,9.60
2015,10,03,03,07,9.60
2015,10,03,03,08,9.60
2015,10,03,03,09,9.60
2015,10,03,03,10,9.50
2015,10,03,03,11,9.50
2015,10,03,03,12,9.50
2015,10,03,03,13,9.40
2015,10,03,03,14,9.40
2015,10,03,03,15,9.40
2015,10,03,03,16,9.40
2015,10,03,03,17,9.30
2015,10,03,03,18,9.30
2015,10,03,03,19,9.30
2015,10,03,03,20,9.20
2015,10,03,03,21,9.20
2015,10,03,03,22,9.20
2015,10,03,03,23,9.20
2015,10,03,03,24,9.10
2015,10,03,03,25,9.10
2015,10,03,03,26,9.10
2015,10,03,03,27,9.10
2015,10,03,03,28,9.00
2015,10,03,03,29,9.00
2015,10,03,03,30,8.90
2015,10,03,03,31,8.90
2015,10,03,03,32,8.90
2015,10,03,03,33,8.90
2015,10,03,03,34,8.90
2015,10,03,03,35,8.90
2015,10,03,03,36,8.90
2015,10,03,03,37,8.90
2015,10,03,03,38,8.90
2015,10,03,03,39,8.90
2015,10,03,03,40,8.90
2015,10,03,03,41,8.90
2015,10,03,03,42,8.80
2015,10,03,03,43,8.80
2015,10,03,03,44,8.80
2015,10,03,03,45,8.70
2015,10,03,03,46,8.70
2015,10,03,03,47,8.70
2015,10,03,03,48,8.60
2015,10,03,03,49,8.60
2015,10,03,03,50,8.50
2015,10,03,03,51,8.50
2015,10,03,03,52,8.40
2015,10,03,03,53,8.40
2015,10,03,03,54,8.30
2015,10,03,03,55,8.30
2015,10,03,03,56,8.30
2015,10,03,03,57,8.30
2015,10,03,03,58,8.20
2015,10,03,03,59,8.20
2015,10,03,04,00,8.20
2015,10,03,04,01,8.10
2015,10,03,04,02,8.10
2015,10,03,04,03,8.10
2015,10,03,04,04,8.00
2015,10,03,04,05,8.00
2015,10,03,04,06,7.90
2015,10,03,04,07,7.90
2015,10,03,04,08,7.90
2015,10,03,04,09,7.90
2015,10,03,04,10,7.80
2015,10,03,04,11,7.80
2015,10,03,04,12,7.80
2015,10,03,04,13,7.80
2015,10,03,04,14,7.80
2015,10,03,04,15,7.80
2015,10,03,04,16,7.80
2015,10,03,04,17,7.80
2015,10,03,04,18,7.80
2015,10,03,04,19,7.80
2015,10,03,04,20,7.80
2015,10,03,04,21,7.80
2015,10,03,04,22,7.80
2015,10,03,04,23,7.80
2015,10,03,04,24,7.80
2015,10,03,04,25,7.70
2015,10,03,04,26,7.70
2015,10,03,04,27,7.70
2015,10,03,04,28,7.70
2015,10,03,04,29,7.60
2015,10,03,04,30,7.60
2015,10,03,04,31,7.60
2015,10,03,04,32,7.60
2015,10,03,04,33,7.60
2015,10,03,04,34,7.60
2015,10,03,04,35,7.60
2015,10,03,04,36,7.60
2015,10,03,04,37,7.60
2015,10,03,04,38,7.50
2015,10,03,04,39,7.50
2015,10,03,04,40,7.50
2015,10,03,04,41,7.50
2015,10,03,04,42,7.40
2015,10,03,04,43,7.40
2015,10,03,04,44,7.40
2015,10,03,04,45,7.40
2015,10,03,04,46,7.30
2015,10,03,04,47,7.30
2015,10,03,04,48,7.30
2015,10,03,04,49,7.30
2015,10,03,04,50,7.20
2015,10,03,04,51,7.20
2015,10,03,04,52,7.20
2015,10,03,04,53,7.10
2015,10,03,04,54,7.10
2015,10,03,04,55,7.10
2015,10,03,04,56,7.00
2015,10,03,04,57,7.00
2015,10,03,04,58,7.00
2015,10,03,04,59,7.00
2015,10,03,05,00,7.00
2015,10,03,05,01,6.90
2015,10,03,05,02,6.90
2015,10,03,05,03,6.90
2015,10,03,05,04,6.80
2015,10,03,05,05,6.80
2015,10,03,05,06,6.80
2015,10,03,05,07,6.70
2015,10,03,05,08,6.60
2015,10,03,05,09,6.60
2015,10,03,05,10,6.50
2015,10,03,05,11,6.50
2015,10,03,05,12,6.50
2015,10,03,05,13,6.40
2015,10,03,05,14,6.40
2015,10,03,05,15,6.40
2015,10,03,05,16,6.40
2015,10,03,05,17,6.40
2015,10,03,05,18,6.40
2015,10,03,05,19,6.40
2015,10,03,05,20,6.40
2015,10,03,05,21,6.40
2015,10,03,05,22,6.40
2015,10,03,05,23,6.40
2015,10,03,05,24,6.30
2015,10,03,05,25,6.30
2015,10,03,05,26,6.40
2015,10,03,05,27,6.40
2015,10,03,05,28,6.40
2015,10,03,05,29,6.40
2015,10,03,05,30,6.40
2015,10,03,05,31,6.50
2015,10,03,05,32,6.50
2015,10,03,05,33,6.60
2015,10,03,05,34,6.60
2015,10,03,05,35,6.70
2015,10,03,05,36,6.70
2015,10,03,05,37,6.70
2015,10,03,05,38,6.80
2015,10,03,05,39,6.80
2015,10,03,05,40,6.80
2015,10,03,05,41,6.90
2015,10,03,05,42,6.90
2015,10,03,05,43,7.00
2015,10,03,05,44,7.10
2015,10,03,05,45,7.20
2015,10,03,05,46,7.20
2015,10,03,05,47,7.30
2015,10,03,05,48,7.30
2015,10,03,05,49,7.40
2015,10,03,05,50,7.50
2015,10,03,05,51,7.60
2015,10,03,05,52,7.60
2015,10,03,05,53,7.70
2015,10,03,05,54,7.70
2015,10,03,05,55,7.80
2015,10,03,05,56,7.80
2015,10,03,05,57,7.80
2015,10,03,05,58,7.80
2015,10,03,05,59,7.90
2015,10,03,06,00,7.90
2015,10,03,06,01,7.90
2015,10,03,06,02,7.90
2015,10,03,06,03,8.00
2015,10,03,06,04,8.00
2015,10,03,06,05,8.00
2015,10,03,06,06,8.00
2015,10,03,06,07,8.00
2015,10,03,06,08,8.00
2015,10,03,06,09,7.90
2015,10,03,06,10,7.90
2015,10,03,06,11,7.90
2015,10,03,06,12,7.90
2015,10,03,06,13,7.80
2015,10,03,06,14,7.80
2015,10,03,06,15,7.70
2015,10,03,06,16,7.70
2015,10,03,06,17,7.60
2015,10,03,06,18,7.60
2015,10,03,06,19,7.50
2015,10,03,06,20,7.50
2015,10,03,06,21,7.40
2015,10,03,06,22,7.40
2015,10,03,06,23,7.30
2015,10,03,06,24,7.30
2015,10,03,06,25,7.20
2015,10,03,06,26,7.20
2015,10,03,06,27,7.20
2015,10,03,06,28,7.10
2015,10,03,06,29,7.10
2015,10,03,06,30,7.00
2015,10,03,06,31,6.90
2015,10,03,06,32,6.90
2015,10,03,06,33,6.80
2015,10,03,06,34,6.80
2015,10,03,06,35,6.70
2015,10,03,06,36,6.70
2015,10,03,06,37,6.70
2015,10,03,06,38,6.70
2015,10,03,06,39,6.60
2015,10,03,06,40,6.60
2015,10,03,06,41,6.60
2015,10,03,06,42,6.60
2015,10,03,06,43,6.60
2015,10,03,06,44,6.60
2015,10,03,06,45,6.60
2015,10,03,06,46,6.60
2015,10,03,06,47,6.50
2015,10,03,06,48,6.60
2015,10,03,06,49,6.60
2015,10,03,06,50,6.60
2015,10,03,06,51,6.60
2015,10,03,06,52,6.70
2015,10,03,06,53,6.70
2015,10,03,06,54,6.70
2015,10,03,06,55,6.80
2015,10,03,06,56,6.80
2015,10,03,06,57,6.80
2015,10,03,06,58,6.90
2015,10,03,06,59,6.90
2015,10,03,07,00,6.90
2015,10,03,07,01,6.90
2015,10,03,07,02,7.00
2015,10,03,07,03,7.00
2015,10,03,07,04,7.10
2015,10,03,07,05,7.20
2015,10,03,07,06,7.20
2015,10,03,07,07,7.30
2015,10,03,07,08,7.30
2015,10,03,07,09,7.30
2015,10,03,07,10,7.30
2015,10,03,07,11,7.40
2015,10,03,07,12,7.40
2015,10,03,07,13,7.50
2015,10,03,07,14,7.50
2015,10,03,07,15,7.50
2015,10,03,07,16,7.50
2015,10,03,07,17,7.50
2015,10,03,07,18,7.40
2015,10,03,07,19,7.40
2015,10,03,07,20,7.40
2015,10,03,07,21,7.40
2015,10,03,07,22,7.30
2015,10,03,07,23,7.30
2015,10,03,07,24,7.30
2015,10,03,07,25,7.30
2015,10,03,07,26,7.30
2015,10,03,07,27,7.30
2015,10,03,07,28,7.20
2015,10,03,07,29,7.20
2015,10,03,07,30,7.20
2015,10,03,07,31,7.20
2015,10,03,07,32,7.20
2015,10,03,07,33,7.20
2015,10,03,07,34,7.20
2015,10,03,07,35,7.20
2015,10,03,07,36,7.20
2015,10,03,07,37,7.20
2015,10,03,07,38,7.20
2015,10,03,07,39,7.20
2015,10,03,07,40,7.20
2015,10,03,07,41,7.20
2015,10,03,07,42,7.20
2015,10,03,07,43,7.20
2015,10,03,07,44,7.20
2015,10,03,07,45,7.20
2015,10,03,07,46,7.20
2015,10,03,07,47,7.20
2015,10,03,07,48,7.20
2015,10,03,07,49,7.20
2015,10,03,07,50,7.10
2015,10,03,07,51,7.20
2015,10,03,07,52,7.20
2015,10,03,07,53,7.20
2015,10,03,07,54,7.20
2015,10,03,07,55,7.20
2015,10,03,07,56,7.20
2015,10,03,07,57,7.20
2015,10,03,07,58,7.20
2015,10,03,07,59,7.20
2015,10,03,08,00,7.20
2015,10,03,08,01,7.20
2015,10,03,08,02,7.20
2015,10,03,08,03,7.20
2015,10,03,08,04,7.20
2015,10,03,08,05,7.30
2015,10,03,08,06,7.30
2015,10,03,08,07,7.30
2015,10,03,08,08,7.30
2015,10,03,08,09,7.40
2015,10,03,08,10,7.40
2015,10,03,08,11,7.40
2015,10,03,08,12,7.40
2015,10,03,08,13,7.40
2015,10,03,08,14,7.40
2015,10,03,08,15,7.50
2015,10,03,08,16,7.50
2015,10,03,08,17,7.50
2015,10,03,08,18,7.60
2015,10,03,08,19,7.60
2015,10,03,08,20,7.60
2015,10,03,08,21,7.60
2015,10,03,08,22,7.60
2015,10,03,08,23,7.70
2015,10,03,08,24,7.70
2015,10,03,08,25,7.70
2015,10,03,08,26,7.70
2015,10,03,08,27,7.70
2015,10,03,08,28,7.70
2015,10,03,08,29,7.70
2015,10,03,08,30,7.80
2015,10,03,08,31,7.80
2015,10,03,08,32,7.80
2015,10,03,08,33,7.90
2015,10,03,08,34,7.90
2015,10,03,08,35,8.00
2015,10,03,08,36,8.00
2015,10,03,08,37,8.10
2015,10,03,08,38,8.10
2015,10,03,08,39,8.20
2015,10,03,08,40,8.20
2015,10,03,08,41,8.30
2015,10,03,08,42,8.30
2015,10,03,08,43,8.30
2015,10,03,08,44,8.40
2015,10,03,08,45,8.50
2015,10,03,08,46,8.60
2015,10,03,08,47,8.60
2015,10,03,08,48,8.70
2015,10,03,08,49,8.80
2015,10,03,08,50,8.80
2015,10,03,08,51,8.90
2015,10,03,08,52,9.00
2015,10,03,08,53,9.00
2015,10,03,08,54,9.10
2015,10,03,08,55,9.20
2015,10,03,08,56,9.30
2015,10,03,08,57,9.30
2015,10,03,08,58,9.40
2015,10,03,08,59,9.50
2015,10,03,09,00,9.50
2015,10,03,09,01,9.60
2015,10,03,09,02,9.60
2015,10,03,09,03,9.70
2015,10,03,09,04,9.70
2015,10,03,09,05,9.70
2015,10,03,09,06,9.80
2015,10,03,09,07,9.80
2015,10,03,09,08,9.80
2015,10,03,09,09,9.90
2015,10,03,09,10,10.00
2015,10,03,09,11,10.00
2015,10,03,09,12,10.10
2015,10,03,09,13,10.20
2015,10,03,09,14,10.30
2015,10,03,09,15,10.30
2015,10,03,09,16,10.40
2015,10,03,09,17,10.50
2015,10,03,09,18,10.60
2015,10,03,09,19,10.70
2015,10,03,09,20,10.70
2015,10,03,09,21,10.80
2015,10,03,09,22,10.90
2015,10,03,09,23,11.00
2015,10,03,09,24,11.10
2015,10,03,09,25,11.10
2015,10,03,09,26,11.20
2015,10,03,09,27,11.30
2015,10,03,09,28,11.40
2015,10,03,09,29,11.40
2015,10,03,09,30,11.50
2015,10,03,09,31,11.60
2015,10,03,09,32,11.60
2015,10,03,09,33,11.70
2015,10,03,09,34,11.80
2015,10,03,09,35,11.90
2015,10,03,09,36,11.90
2015,10,03,09,37,12.00
2015,10,03,09,38,12.00
2015,10,03,09,39,12.10
2015,10,03,09,40,12.20
2015,10,03,09,41,12.20
2015,10,03,09,42,12.30
2015,10,03,09,43,12.30
2015,10,03,09,44,12.40
2015,10,03,09,45,12.40
2015,10,03,09,46,12.50
2015,10,03,09,47,12.60
2015,10,03,09,48,12.60
2015,10,03,09,49,12.70
2015,10,03,09,50,12.70
2015,10,03,09,51,12.80
2015,10,03,09,52,12.80
2015,10,03,09,53,12.90
2015,10,03,09,54,12.90
2015,10,03,09,55,13.00
2015,10,03,09,56,13.00
2015,10,03,09,57,13.10
2015,10,03,09,58,13.10
2015,10,03,09,59,13.20
2015,10,03,10,00,13.20
2015,10,03,10,01,13.30
2015,10,03,10,02,13.30
2015,10,03,10,03,13.40
2015,10,03,10,04,13.40
2015,10,03,10,05,13.50
2015,10,03,10,06,13.50
2015,10,03,10,07,13.60
2015,10,03,10,08,13.60
2015,10,03,10,09,13.70
2015,10,03,10,10,13.70
2015,10,03,10,11,13.80
2015,10,03,10,12,13.80
2015,10,03,10,13,13.90
2015,10,03,10,14,13.90
2015,10,03,10,15,14.00
2015,10,03,10,16,14.00
2015,10,03,10,17,14.10
2015,10,03,10,18,14.10
2015,10,03,10,19,14.20
2015,10,03,10,20,14.20
2015,10,03,10,21,14.30
2015,10,03,10,22,14.30
2015,10,03,10,23,14.40
2015,10,03,10,24,14.40
2015,10,03,10,25,14.50
2015,10,03,10,26,14.50
2015,10,03,10,27,14.60
2015,10,03,10,28,14.60
2015,10,03,10,29,14.70
2015,10,03,10,30,14.70
2015,10,03,10,31,14.80
2015,10,03,10,32,14.80
2015,10,03,10,33,14.80
2015,10,03,10,34,14.90
2015,10,03,10,35,14.90
2015,10,03,10,36,14.90
2015,10,03,10,37,15.00
2015,10,03,10,38,15.10
2015,10,03,10,39,15.10
2015,10,03,10,40,15.20
2015,10,03,10,41,15.20
2015,10,03,10,42,15.20
2015,10,03,10,43,15.30
2015,10,03,10,44,15.30
2015,10,03,10,45,15.40
2015,10,03,10,46,15.40
2015,10,03,10,47,15.40
2015,10,03,10,48,15.50
2015,10,03,10,49,15.50
2015,10,03,10,50,15.50
2015,10,03,10,51,15.50
2015,10,03,10,52,15.50
2015,10,03,10,53,15.50
2015,10,03,10,54,15.50
2015,10,03,10,55,15.40
2015,10,03,10,56,15.40
2015,10,03,10,57,15.40
2015,10,03,10,58,15.40
2015,10,03,10,59,15.40
2015,10,03,11,00,15.50
2015,10,03,11,01,15.50
2015,10,03,11,02,15.60
2015,10,03,11,03,15.60
2015,10,03,11,04,15.60
2015,10,03,11,05,15.60
2015,10,03,11,06,15.70
2015,10,03,11,07,15.70
2015,10,03,11,08,15.70
2015,10,03,11,09,15.70
2015,10,03,11,10,15.80
2015,10,03,11,11,15.80
2015,10,03,11,12,15.80
2015,10,03,11,13,15.80
2015,10,03,11,14,15.90
2015,10,03,11,15,15.90
2015,10,03,11,16,15.90
2015,10,03,11,17,15.90
2015,10,03,11,18,15.90
2015,10,03,11,19,16.00
2015,10,03,11,20,16.00
2015,10,03,11,21,16.00
2015,10,03,11,22,16.10
2015,10,03,11,23,16.10
2015,10,03,11,24,16.10
2015,10,03,11,25,16.20
2015,10,03,11,26,16.20
2015,10,03,11,27,16.30
2015,10,03,11,28,16.40
2015,10,03,11,29,16.40
2015,10,03,11,30,16.50
2015,10,03,11,31,16.50
2015,10,03,11,32,16.50
2015,10,03,11,33,16.60
2015,10,03,11,34,16.60
2015,10,03,11,35,16.60
2015,10,03,11,36,16.70
2015,10,03,11,37,16.70
2015,10,03,11,38,16.70
2015,10,03,11,39,16.80
2015,10,03,11,40,16.90
2015,10,03,11,41,17.00
2015,10,03,11,42,17.10
2015,10,03,11,43,17.10
2015,10,03,11,44,17.20
2015,10,03,11,45,17.20
2015,10,03,11,46,17.20
2015,10,03,11,47,17.30
2015,10,03,11,48,17.30
2015,10,03,11,49,17.30
2015,10,03,11,50,17.30
2015,10,03,11,51,17.30
2015,10,03,11,52,17.30
2015,10,03,11,53,17.20
2015,10,03,11,54,17.20
2015,10,03,11,55,17.20
2015,10,03,11,56,17.30
2015,10,03,11,57,17.30
2015,10,03,11,58,17.40
2015,10,03,11,59,17.40
2015,10,03,12,00,17.40
2015,10,03,12,01,17.50
2015,10,03,12,02,17.50
2015,10,03,12,03,17.50
2015,10,03,12,04,17.60
2015,10,03,12,05,17.60
2015,10,03,12,06,17.70
2015,10,03,12,07,17.70
2015,10,03,12,08,17.70
2015,10,03,12,09,17.60
2015,10,03,12,10,17.60
2015,10,03,12,11,17.50
2015,10,03,12,12,17.50
2015,10,03,12,13,17.50
2015,10,03,12,14,17.50
2015,10,03,12,15,17.50
2015,10,03,12,16,17.50
2015,10,03,12,17,17.60
2015,10,03,12,18,17.60
2015,10,03,12,19,17.60
2015,10,03,12,20,17.60
2015,10,03,12,21,17.70
2015,10,03,12,22,17.70
2015,10,03,12,23,17.70
2015,10,03,12,24,17.70
2015,10,03,12,25,17.70
2015,10,03,12,26,17.80
2015,10,03,12,27,17.80
2015,10,03,12,28,17.90
2015,10,03,12,29,17.90
2015,10,03,12,30,17.90
2015,10,03,12,31,18.00
2015,10,03,12,32,18.00
2015,10,03,12,33,18.00
2015,10,03,12,34,18.00
2015,10,03,12,35,18.00
2015,10,03,12,36,17.90
2015,10,03,12,37,17.80
2015,10,03,12,38,17.80
2015,10,03,12,39,17.80
2015,10,03,12,40,17.80
2015,10,03,12,41,17.80
2015,10,03,12,42,17.80
2015,10,03,12,43,17.90
2015,10,03,12,44,17.90
2015,10,03,12,45,18.00
2015,10,03,12,46,18.10
2015,10,03,12,47,18.10
2015,10,03,12,48,18.20
2015,10,03,12,49,18.20
2015,10,03,12,50,18.30
2015,10,03,12,51,18.30
2015,10,03,12,52,18.40
2015,10,03,12,53,18.50
2015,10,03,12,54,18.50
2015,10,03,12,55,18.60
2015,10,03,12,56,18.60
2015,10,03,12,57,18.60
2015,10,03,12,58,18.60
2015,10,03,12,59,18.60
2015,10,03,13,00,18.60
2015,10,03,13,01,18.60
2015,10,03,13,02,18.60
2015,10,03,13,03,18.60
2015,10,03,13,04,18.60
2015,10,03,13,05,18.60
2015,10,03,13,06,18.60
2015,10,03,13,07,18.60
2015,10,03,13,08,18.60
2015,10,03,13,09,18.60
2015,10,03,13,10,18.60
2015,10,03,13,11,18.70
2015,10,03,13,12,18.70
2015,10,03,13,13,18.80
2015,10,03,13,14,18.80
2015,10,03,13,15,18.80
2015,10,03,13,16,18.80
2015,10,03,13,17,18.80
2015,10,03,13,18,18.90
2015,10,03,13,19,18.90
2015,10,03,13,20,18.90
2015,10,03,13,21,18.90
2015,10,03,13,22,18.90
2015,10,03,13,23,18.90
2015,10,03,13,24,19.00
2015,10,03,13,25,19.00
2015,10,03,13,26,19.00
2015,10,03,13,27,19.10
2015,10,03,13,28,19.10
2015,10,03,13,29,19.10
2015,10,03,13,30,19.10
2015,10,03,13,31,19.10
2015,10,03,13,32,19.10
2015,10,03,13,33,19.10
2015,10,03,13,34,19.10
2015,10,03,13,35,19.10
2015,10,03,13,36,19.10
2015,10,03,13,37,19.00
2015,10,03,13,38,19.00
2015,10,03,13,39,18.90
2015,10,03,13,40,18.90
2015,10,03,13,41,19.00
2015,10,03,13,42,19.00
2015,10,03,13,43,19.10
2015,10,03,13,44,19.10
2015,10,03,13,45,19.20
2015,10,03,13,46,19.20
2015,10,03,13,47,19.20
2015,10,03,13,48,19.30
2015,10,03,13,49,19.30
2015,10,03,13,50,19.30
2015,10,03,13,51,19.30
2015,10,03,13,52,19.40
2015,10,03,13,53,19.40
2015,10,03,13,54,19.50
2015,10,03,13,55,19.50
2015,10,03,13,56,19.60
2015,10,03,13,57,19.60
2015,10,03,13,58,19.60
2015,10,03,13,59,19.60
2015,10,03,14,00,19.60
2015,10,03,14,01,19.70
2015,10,03,14,02,19.70
2015,10,03,14,03,19.60
2015,10,03,14,04,19.60
2015,10,03,14,05,19.60
2015,10,03,14,06,19.70
2015,10,03,14,07,19.70
2015,10,03,14,08,19.70
2015,10,03,14,09,19.80
2015,10,03,14,10,19.80
2015,10,03,14,11,19.80
2015,10,03,14,12,19.80
2015,10,03,14,13,19.90
2015,10,03,14,14,19.90
2015,10,03,14,15,19.90
2015,10,03,14,16,19.90
2015,10,03,14,17,19.90
2015,10,03,14,18,20.00
2015,10,03,14,19,20.10
2015,10,03,14,20,20.10
2015,10,03,14,21,20.20
2015,10,03,14,22,20.30
2015,10,03,14,23,20.30
2015,10,03,14,24,20.40
2015,10,03,14,25,20.50
2015,10,03,14,26,20.50
2015,10,03,14,27,20.60
2015,10,03,14,28,20.50
2015,10,03,14,29,20.50
2015,10,03,14,30,20.50
2015,10,03,14,31,20.40
2015,10,03,14,32,20.40
2015,10,03,14,33,20.50
2015,10,03,14,34,20.50
2015,10,03,14,35,20.50
2015,10,03,14,36,20.40
2015,10,03,14,37,20.40
2015,10,03,14,38,20.40
2015,10,03,14,39,20.40
2015,10,03,14,40,20.40
2015,10,03,14,41,20.40
2015,10,03,14,42,20.40
2015,10,03,14,43,20.40
2015,10,03,14,44,20.40
2015,10,03,14,45,20.40
2015,10,03,14,46,20.40
2015,10,03,14,47,20.40
2015,10,03,14,48,20.30
2015,10,03,14,49,20.30
2015,10,03,14,50,20.30
2015,10,03,14,51,20.30
2015,10,03,14,52,20.30
2015,10,03,14,53,20.30
2015,10,03,14,54,20.30
2015,10,03,14,55,20.30
2015,10,03,14,56,20.30
2015,10,03,14,57,20.40
2015,10,03,14,58,20.40
2015,10,03,14,59,20.40
2015,10,03,15,00,20.40
2015,10,03,15,01,20.40
2015,10,03,15,02,20.30
2015,10,03,15,03,20.30
2015,10,03,15,04,20.20
2015,10,03,15,05,20.20
2015,10,03,15,06,20.20
2015,10,03,15,07,20.30
2015,10,03,15,08,20.30
2015,10,03,15,09,20.30
2015,10,03,15,10,20.30
2015,10,03,15,11,20.30
2015,10,03,15,12,20.30
2015,10,03,15,13,20.40
2015,10,03,15,14,20.40
2015,10,03,15,15,20.40
2015,10,03,15,16,20.40
2015,10,03,15,17,20.50
2015,10,03,15,18,20.50
2015,10,03,15,19,20.50
2015,10,03,15,20,20.40
2015,10,03,15,21,20.40
2015,10,03,15,22,20.30
2015,10,03,15,23,20.30
2015,10,03,15,24,20.30
2015,10,03,15,25,20.30
2015,10,03,15,26,20.30
2015,10,03,15,27,20.20
2015,10,03,15,28,20.20
2015,10,03,15,29,20.10
2015,10,03,15,30,20.10
2015,10,03,15,31,20.10
2015,10,03,15,32,20.10
2015,10,03,15,33,20.10
2015,10,03,15,34,20.10
2015,10,03,15,35,20.00
2015,10,03,15,36,20.00
2015,10,03,15,37,20.00
2015,10,03,15,38,20.00
2015,10,03,15,39,19.90
2015,10,03,15,40,19.90
2015,10,03,15,41,20.00
2015,10,03,15,42,20.00
2015,10,03,15,43,20.00
2015,10,03,15,44,20.00
2015,10,03,15,45,20.00
2015,10,03,15,46,20.10
2015,10,03,15,47,20.10
2015,10,03,15,48,20.10
2015,10,03,15,49,20.10
2015,10,03,15,50,20.10
2015,10,03,15,51,20.10
2015,10,03,15,52,20.10
2015,10,03,15,53,20.10
2015,10,03,15,54,20.10
2015,10,03,15,55,20.10
2015,10,03,15,56,20.10
2015,10,03,15,57,20.10
2015,10,03,15,58,20.10
2015,10,03,15,59,20.10
2015,10,03,16,00,20.20
2015,10,03,16,01,20.20
2015,10,03,16,02,20.20
2015,10,03,16,03,20.20
2015,10,03,16,04,20.20
2015,10,03,16,05,20.20
2015,10,03,16,06,20.20
2015,10,03,16,07,20.20
2015,10,03,16,08,20.30
2015,10,03,16,09,20.30
2015,10,03,16,10,20.30
2015,10,03,16,11,20.30
2015,10,03,16,12,20.20
2015,10,03,16,13,20.20
2015,10,03,16,14,20.20
2015,10,03,16,15,20.20
2015,10,03,16,16,20.20
2015,10,03,16,17,20.20
2015,10,03,16,18,20.20
2015,10,03,16,19,20.20
2015,10,03,16,20,20.20
2015,10,03,16,21,20.20
2015,10,03,16,22,20.20
2015,10,03,16,23,20.20
2015,10,03,16,24,20.20
2015,10,03,16,25,20.20
2015,10,03,16,26,20.20
2015,10,03,16,27,20.20
2015,10,03,16,28,20.30
2015,10,03,16,29,20.20
2015,10,03,16,30,20.20
2015,10,03,16,31,20.20
2015,10,03,16,32,20.20
2015,10,03,16,33,20.20
2015,10,03,16,34,20.20
2015,10,03,16,35,20.20
2015,10,03,16,36,20.20
2015,10,03,16,37,20.20
2015,10,03,16,38,20.20
2015,10,03,16,39,20.20
2015,10,03,16,40,20.20
2015,10,03,16,41,20.10
2015,10,03,16,42,20.10
2015,10,03,16,43,20.10
2015,10,03,16,44,20.10
2015,10,03,16,45,20.10
2015,10,03,16,46,20.10
2015,10,03,16,47,20.20
2015,10,03,16,48,20.20
2015,10,03,16,49,20.20
2015,10,03,16,50,20.20
2015,10,03,16,51,20.30
2015,10,03,16,52,20.30
2015,10,03,16,53,20.30
2015,10,03,16,54,20.30
2015,10,03,16,55,20.30
2015,10,03,16,56,20.40
2015,10,03,16,57,20.40
2015,10,03,16,58,20.40
2015,10,03,16,59,20.40
2015,10,03,17,00,20.50
2015,10,03,17,01,20.50
2015,10,03,17,02,20.50
2015,10,03,17,03,20.40
2015,10,03,17,04,20.40
2015,10,03,17,05,20.40
2015,10,03,17,06,20.40
2015,10,03,17,07,20.40
2015,10,03,17,08,20.30
2015,10,03,17,09,20.30
2015,10,03,17,10,20.30
2015,10,03,17,11,20.30
2015,10,03,17,12,20.30
2015,10,03,17,13,20.30
2015,10,03,17,14,20.30
2015,10,03,17,15,20.30
2015,10,03,17,16,20.30
2015,10,03,17,17,20.30
2015,10,03,17,18,20.20
2015,10,03,17,19,20.20
2015,10,03,17,20,20.20
2015,10,03,17,21,20.20
2015,10,03,17,22,20.20
2015,10,03,17,23,20.20
2015,10,03,17,24,20.20
2015,10,03,17,25,20.10
2015,10,03,17,26,20.10
2015,10,03,17,27,20.10
2015,10,03,17,28,20.10
2015,10,03,17,29,20.10
2015,10,03,17,30,20.10
2015,10,03,17,31,20.10
2015,10,03,17,32,20.00
2015,10,03,17,33,20.00
2015,10,03,17,34,20.00
2015,10,03,17,35,20.00
2015,10,03,17,36,19.90
2015,10,03,17,37,19.90
2015,10,03,17,38,19.90
2015,10,03,17,39,19.90
2015,10,03,17,40,19.90
2015,10,03,17,41,19.90
2015,10,03,17,42,19.80
2015,10,03,17,43,19.80